INMARSAT 4-F1

Last updated on Jan. 27, 2020, 4:38 a.m. UTC

1 28628U 05009A   20026.37441417 -.00000267  00000-0  00000-0 0  9997
2 28628   3.1245  25.8422 0002496 288.6729  88.8864  1.00271783 54278
UTC
Height (km)
Latitude
Longitude
Inclination
Orbital Period
UTC large
Height (km)
Speed (km/s)
/
Latitude / Longitude
Inclination (degrees)
Orbital Period (minutes)
Azimuth
Elevation
Range (km)
Doppler Factor
iOS Compass Heading
iOS Angle

Next 30 passes for location: Hong Kong

Rise time Rise Azimuth (degrees) Set time Set Azimuth (degrees) Duration Max altitude (degrees)

No matching passes for this satellites